Location: Guayaquil
(2.1667°S, 79.9000°W)
Time: 06:23:15
(UTC-05:00)

AAUSAT CUBESAT 2 - Visible Passes

Search period start: 19 August 2018 00:00
Search period end: 29 August 2018 00:00
Orbit: 575 x 593 km, 97.5° (Epoch: 19 August)

Date Brightness Start Highest point End Pass type
(mag) Time Alt. Az. Time Alt. Az. Time Alt. Az.
19 Aug ? 19:43:38 10° S 19:47:41 49° WSW 19:51:41 10° NNW visible
20 Aug ? 19:49:58 10° S 19:53:52 39° WSW 19:57:45 10° NNW visible
21 Aug ? 19:56:21 10° SSW 20:00:04 31° WSW 20:03:45 10° NW visible
22 Aug ? 20:02:47 10° SSW 20:06:15 25° WSW 20:09:41 10° NW visible
23 Aug ? 20:09:17 10° SSW 20:12:26 21° WSW 20:15:33 10° NW visible
24 Aug ? 18:40:40 10° ESE 18:43:28 18° E 18:46:15 10° NE visible
24 Aug ? 20:15:54 10° SW 20:18:37 17° WSW 20:21:19 10° WNW visible
25 Aug ? 18:46:27 10° SE 18:49:39 22° E 18:52:50 10° NNE visible
25 Aug ? 20:22:40 10° SW 20:24:47 14° WSW 20:26:54 10° WNW visible
26 Aug ? 18:52:20 10° SE 18:55:51 26° E 18:59:19 10° NNE visible
26 Aug ? 20:29:49 10° WSW 20:30:58 11° WSW 20:32:06 10° W visible
27 Aug ? 18:58:17 10° SE 19:02:02 33° E 19:05:45 10° NNE visible
28 Aug ? 19:04:19 10° SSE 19:08:14 40° E 19:12:06 10° N visible
